Location: Sternwarte_Laufen
(47.9344°N, 12.9346°E)
Time: 11:59:08
(UTC+01:00)

N. Korean satellite - Visible Passes

Search period start: 18 February 2018 00:00
Search period end: 28 February 2018 00:00
Orbit: 459 x 514 km, 97.2° (Epoch: 17 February)

Date Brightness Start Highest point End Pass type
(mag) Time Alt. Az. Time Alt. Az. Time Alt. Az.
18 Feb 10.0 05:57:36 10° NE 06:00:06 17° E 06:02:37 10° SE visible
18 Feb 7.3 18:09:38 10° S 18:13:02 58° W 18:16:29 10° NNW visible
20 Feb 9.9 18:57:00 10° SW 18:59:17 17° W 19:01:36 10° NW visible
21 Feb 8.9 06:19:15 10° NNE 06:22:32 30° E 06:25:50 10° SSE visible
21 Feb 8.7 18:32:17 10° SSW 18:35:22 30° W 18:38:31 10° NNW visible
22 Feb 10.0 05:56:09 10° NE 05:58:38 17° E 06:01:08 10° SE visible
22 Feb 7.2 18:08:08 10° S 18:11:33 60° W 18:15:01 10° NNW visible
24 Feb 9.9 18:55:23 10° SW 18:57:46 17° W 19:00:10 10° NW visible
25 Feb 9.0 06:17:45 10° NNE 06:21:02 30° E 06:24:21 10° SSE visible
25 Feb 8.7 18:30:43 10° SSW 18:33:50 31° W 18:37:02 10° NNW visible
26 Feb 10.1 05:54:39 10° NE 05:57:08 17° E 05:59:37 10° SE visible
